Home > Weather > Cologne > Past weeks

Flag for Germany Weather for the Past 2 Weeks in Cologne, North Rhine-Westphalia, Germany

Now
50 °F

Clear.


Feels Like: 46 °F
Forecast: 43 / 65 °F
Wind: 10 mph from East

Location: Koeln / Bonn

Current Time: May 5, 2016 at 12:08:39 AM

Latest Report: May 4, 2016 at 10:50 PM


Visibility: 10 mi

Pressure: 30.33 "Hg

Humidity: 54%

Dew Point: 34 °F

Location of CologneLocation

Historic Weather in Cologne — Graph

°F

Cologne Temperature Yesterday

Maximum temperature yesterday: 61 °F (at 3:50 PM)
Minimum temperature yesterday: 34 °F (at 5:20 AM)
Average temperature yesterday: 49 °F

High & Low Weather Summary for the Past Weeks

 TemperatureHumidityPressure
High70 °F (Apr 21, 3:50 PM)100% (Apr 24, 11:50 PM)30.45 "Hg (Apr 24, 11:50 PM)
Low30 °F (Apr 20, 6:50 AM)23% (Apr 21, 4:50 PM)29.53 "Hg (Apr 26, 10:50 AM)
Average47 °F69%30.04 "Hg
* Reported Apr 19 8:20 PM — May 4 8:20 PM, Cologne, Weather by CustomWeather, © 2016

Note: Actual official high and low records may vary slightly from our data, if they occured in-between our weather recording intervals... More about our weather records

Advertising

Cologne Weather History for the Previous 24 Hours

Scroll right to see more
 ConditionsComfort  
Time TempWeatherWind HumidityBarometerVisibility
8:20 PM
Wed, May 4
57 °FSunny.2 mph39%30.30 "Hg10 mi
7:50 PM59 °FSunny.5 mph34%30.33 "Hg10 mi
7:20 PM61 °FSunny.1 mph29%30.33 "Hg10 mi
6:50 PM61 °FSunny.2 mph31%30.33 "Hg10 mi
6:20 PM59 °FPassing clouds.3 mph34%30.33 "HgN/A
5:50 PM61 °FSunny.5 mph31%30.33 "Hg10 mi
5:20 PM61 °FSunny.5 mph31%30.33 "Hg10 mi
4:20 PM61 °FSunny.5 mph31%30.33 "Hg10 mi
3:50 PM61 °FPassing clouds.3 mph31%30.36 "HgN/A
3:20 PM57 °FPassing clouds.8 mph36%30.36 "HgN/A
2:50 PM59 °FSunny.3 mph34%30.36 "Hg10 mi
2:20 PM57 °FSunny.6 mph39%30.36 "Hg10 mi
1:20 PM57 °FSunny.3 mph36%30.39 "Hg10 mi
12:50 PM55 °FSunny.5 mph38%30.39 "Hg10 mi
12:20 PM55 °FSunny.3 mph38%30.39 "Hg10 mi
11:20 AM55 °FScattered clouds.5 mph41%30.39 "HgN/A
10:50 AM54 °FScattered clouds.3 mph51%30.39 "HgN/A
9:50 AM50 °FScattered clouds.1 mph62%30.42 "HgN/A
9:20 AM48 °FScattered clouds.2 mph66%30.42 "HgN/A
8:20 AM43 °FScattered clouds.2 mph81%30.42 "HgN/A
7:20 AM36 °FScattered clouds.1 mph93%30.39 "HgN/A
6:20 AM34 °FFog.1 mph93%30.39 "HgN/A
5:50 AM34 °FFog.2 mph93%30.39 "HgN/A
5:20 AM34 °FFog.2 mph100%30.36 "HgN/A
4:50 AM36 °FFog.2 mph93%30.36 "HgN/A
4:20 AM37 °FFog.2 mph93%30.36 "HgN/A
3:50 AM37 °FClear.2 mph93%30.36 "Hg10 mi
3:20 AM37 °FClear.2 mph93%30.36 "Hg10 mi
2:50 AM39 °FClear.3 mph87%30.36 "Hg10 mi
2:20 AM36 °FClear.2 mph87%30.36 "Hg10 mi
1:50 AM41 °FClear.2 mph81%30.36 "Hg10 mi
12:50 AM41 °FClear.1 mph81%30.36 "Hg10 mi
12:20 AM43 °FPassing clouds.3 mph76%30.36 "HgN/A
Weather by CustomWeather, © 2016

See weather overviewHow to use our weather pages